Weather History for GMMX - December, 2012

Change the Weather History Date:

Thursday, December 13, 2012

  Actual Average Record
Temperature  
Mean Temperature 54 °F -  
Max Temperature 65 °F 64 °F 75 °F (1996)
Min Temperature 44 °F 43 °F 39 °F (2005)
Degree Days  
Heating Degree Days 10    
Growing Degree Days 4 (Base 50)    
Moisture  
Dew Point 46 °F    
Average Humidity 78    
Maximum Humidity 100    
Minimum Humidity 41    
Precipitation  
Precipitation 0.00 in 0.04 in - ()
Sea Level Pressure  
Sea Level Pressure 30.05 in    
Wind  
Wind Speed 2 mph ()    
Max Wind Speed 6 mph    
Max Gust Speed -    
Visibility 3.6 miles    
Events Fog    
Averages and records for this station are not official NWS values.
T = Trace of Precipitation, MM = Missing Value Source: Averaged Metar Reports

Daily Weather History Graph

Daily Weather History Graph

Search for Another Location

Airport or City:

Trip Planner

Search our weather history database for the weather conditions in past years. The results will help you decide how hot, cold, wet, or windy it might be!

Date:

Astronomy

Dec. 13, 2012 Rise Set
Actual Time 7:23 AM WET 5:29 PM WET
Civil Twilight 6:56 AM WET 5:56 PM WET
Nautical Twilight 6:25 AM WET 6:27 PM WET
Astronomical Twilight 5:56 AM WET 6:56 PM WET
Moon 7:18 AM WET (12/13) 5:55 PM WET (12/13)
Length of Visible Light 11h 00m
Length of Day
10h 06m
New Moon, 0% of the Moon is Illuminated
Dec 13
New Moon
Dec 20
First Quarter
Dec 28
Full
Jan 5
Last Quarter
Jan 11
New

Hourly Weather History & Observations

Time (WET) Temp. Windchill Dew Point Humidity Pressure Visibility Wind Dir Wind Speed Gust Speed Precip Events Conditions
12:00 AM 51.8 °F - 44.6 °F 76% 30.04 in - SW 3.5 mph - N/A   Clear
12:30 AM 50.0 °F - 44.6 °F 82% 30.04 in - South 3.5 mph - N/A   Clear
1:00 AM 48.2 °F - 42.8 °F 82% 30.01 in - Variable 1.2 mph - N/A   Clear
1:30 AM 46.4 °F - 42.8 °F 87% 30.01 in - Calm Calm - N/A   Clear
2:00 AM 44.6 °F - 41.0 °F 87% 30.01 in - Calm Calm - N/A   Clear
2:30 AM 46.4 °F 45.2 °F 44.6 °F 93% 30.01 in - SSW 3.5 mph - N/A   Clear
3:00 AM 47 °F - 43 °F 79% 30.04 in 6 mi SE 3.5 mph - -  
3:00 AM 48.2 °F - 42.8 °F 82% 30.01 in - SSE 3.5 mph - N/A   Clear
3:30 AM 46.4 °F - 42.8 °F 87% 30.01 in - SE 2.3 mph - N/A   Clear
4:00 AM 46.4 °F 45.2 °F 44.6 °F 93% 30.01 in 3.1 mi SW 3.5 mph - N/A   Unknown
4:08 AM 48.2 °F - 46.4 °F 93% 30.01 in 1.2 mi Variable 2.3 mph - N/A   Scattered Clouds
4:30 AM 48.2 °F - 46.4 °F 93% 30.01 in 1.2 mi Variable 2.3 mph - N/A   Scattered Clouds
4:31 AM 48.2 °F - 48.2 °F 100% 30.01 in 0.4 mi Variable 2.3 mph - N/A Fog Fog
5:00 AM 46.4 °F - 46.4 °F 100% 30.01 in 0.4 mi Calm Calm - N/A Fog Fog
5:02 AM 46.4 °F - 46.4 °F 100% 30.01 in 1.2 mi Variable 2.3 mph - N/A   Mostly Cloudy
5:30 AM 46.4 °F 45.2 °F 46.4 °F 100% 30.01 in 1.9 mi ESE 3.5 mph - N/A   Mostly Cloudy
5:31 AM 48.2 °F - 48.2 °F 100% 30.04 in 0.4 mi ESE 3.5 mph - N/A Fog Fog
5:48 AM 47 °F - 47 °F 100% 30.06 in 0 mi East 2.3 mph - - Fog Partial Fog
6:00 AM 48.2 °F - 48.2 °F 100% 30.04 in 0.4 mi East 2.3 mph - N/A Fog Fog
6:30 AM 48.2 °F - 48.2 °F 100% 30.04 in 0.4 mi Variable 2.3 mph - N/A Fog Fog
7:00 AM 46.4 °F 45.2 °F 46.4 °F 100% 30.04 in 0.4 mi SSE 3.5 mph - N/A Fog Fog
7:30 AM 46.4 °F 45.2 °F 46.4 °F 100% 30.04 in 0.4 mi SSE 3.5 mph - N/A Fog Fog
8:00 AM 46.4 °F - 46.4 °F 100% 30.06 in 0.7 mi Variable 1.2 mph - N/A Fog Fog
8:30 AM 46.4 °F - 46.4 °F 100% 30.06 in 0.5 mi Calm Calm - N/A Fog Fog
8:49 AM 47 °F - 47 °F 100% 30.10 in 0 mi Calm Calm - - Fog Partial Fog
9:00 AM 46.4 °F - 46.4 °F 100% 30.06 in 0.5 mi Calm Calm - N/A Fog Fog
9:06 AM 48.2 °F - 48.2 °F 100% 30.06 in 0.7 mi Calm Calm - N/A   Scattered Clouds
9:16 AM 48.2 °F - 48.2 °F 100% 30.06 in 3.1 mi Calm Calm - N/A   Scattered Clouds
9:30 AM 48.2 °F - 48.2 °F 100% 30.06 in 3.1 mi Calm Calm - N/A   Scattered Clouds
10:00 AM 51.8 °F - 46.4 °F 82% 30.09 in 5.6 mi ESE 2.3 mph - N/A   Scattered Clouds
10:30 AM 55.4 °F - 46.4 °F 72% 30.09 in 5.6 mi Calm Calm - N/A   Scattered Clouds
11:00 AM 57.2 °F - 46.4 °F 67% 30.09 in - Calm Calm - N/A   Clear
11:30 AM 59.0 °F - 46.4 °F 63% 30.09 in - Calm Calm - N/A   Clear
12:00 PM 62 °F - 47 °F 48% 30.06 in 6 mi Calm Calm - -   Unknown Precipitation
12:00 PM 60.8 °F - 48.2 °F 63% 30.06 in - Calm Calm - N/A   Clear
12:30 PM 60.8 °F - 48.2 °F 63% 30.06 in 4.3 mi North 5.8 mph - N/A   Unknown
1:00 PM 60.8 °F - 48.2 °F 63% 30.06 in 6.2 mi North 4.6 mph - N/A   Partly Cloudy
1:30 PM 62.6 °F - 44.6 °F 52% 30.06 in 6.2 mi NE 3.5 mph - N/A   Partly Cloudy
2:00 PM 62.6 °F - 46.4 °F 55% 30.04 in 6.2 mi NW 4.6 mph - N/A   Partly Cloudy
2:30 PM 62.6 °F - 44.6 °F 52% 30.04 in 6.2 mi NNE 3.5 mph - N/A   Partly Cloudy
3:00 PM 64 °F - 46 °F 41% 30.01 in 6 mi Calm Calm - -   Unknown Precipitation
3:00 PM 64.4 °F - 46.4 °F 52% 30.04 in 6.2 mi Variable 2.3 mph - N/A   Partly Cloudy
3:30 PM 62.6 °F - 46.4 °F 55% 30.04 in 6.2 mi NW 5.8 mph - N/A   Partly Cloudy
4:00 PM 64.4 °F - 46.4 °F 52% 30.06 in 6.2 mi Calm Calm - N/A   Partly Cloudy
4:30 PM 64.4 °F - 46.4 °F 52% 30.06 in 6.2 mi Variable 1.2 mph - N/A   Scattered Clouds
5:00 PM 64.4 °F - 46.4 °F 52% 30.06 in 6.2 mi Calm Calm - N/A   Scattered Clouds
5:30 PM 62.6 °F - 46.4 °F 55% 30.06 in 6.2 mi North 3.5 mph - N/A   Scattered Clouds
6:00 PM 60 °F - 46 °F 49% 30.06 in 6 mi NE 1.2 mph - -   Unknown Precipitation
6:00 PM 60.8 °F - 46.4 °F 59% 30.06 in 6.2 mi NE 2.3 mph - N/A   Partly Cloudy
6:30 PM 60.8 °F - 46.4 °F 59% 30.06 in 6.2 mi Calm Calm - N/A   Partly Cloudy
7:00 PM 57.2 °F - 44.6 °F 63% 30.06 in 6.2 mi NE 5.8 mph - N/A   Partly Cloudy
7:30 PM 55.4 °F - 44.6 °F 67% 30.09 in 6.2 mi NE 3.5 mph - N/A   Partly Cloudy
8:00 PM 53.6 °F - 44.6 °F 72% 30.09 in - ENE 5.8 mph - N/A   Clear
8:30 PM 53.6 °F - 44.6 °F 72% 30.09 in - East 4.6 mph - N/A   Clear
9:00 PM 51 °F - 45 °F 72% 30.12 in 6 mi East 4.6 mph - -  
9:00 PM 51.8 °F - 44.6 °F 76% 30.09 in - East 4.6 mph - N/A   Clear
9:30 PM 50.0 °F - 44.6 °F 82% 30.09 in - East 5.8 mph - N/A   Clear
10:00 PM 50.0 °F - 44.6 °F 82% 30.09 in - East 3.5 mph - N/A   Clear
11:30 PM 50.0 °F - 44.6 °F 82% 30.12 in - Calm Calm - N/A   Clear